Date,TemperatureHighF,TemperatureAvgF,TemperatureLowF,DewpointHighF,DewpointAvgF,DewpointLowF,HumidityHigh,HumidityAvg,HumidityLow,PressureMaxIn,PressureMinIn,WindSpeedMaxMPH,WindSpeedAvgMPH,GustSpeedMaxMPH,PrecipitationSumIn
2014-1-1,45.2,35.4,27.1,32.3,27.2,22.1,85,72,56,30.27,29.99,2,0,8,0.00
2014-1-2,34.4,22.6,10.5,31.3,19.5,4.5,96,88,73,30.35,29.85,3,0,8,0.00
2014-1-3,20.2,12.3,1.9,10.6,5.7,-0.8,89,75,60,30.56,30.23,2,0,6,0.00
2014-1-4,39.7,29.1,16.4,24.5,17.4,10.1,78,63,47,30.23,30.00,5,1,10,0.00
2014-1-5,38.8,32.9,12.7,36.3,30.0,10.0,97,90,58,30.03,29.54,5,1,13,1.20
2014-1-6,12.5,-3.2,-8.3,9.8,-8.8,-14.7,89,76,64,30.48,29.90,5,2,11,0.00
2014-1-7,13.5,4.1,-6.0,6.8,-1.9,-11.1,92,76,67,30.54,30.40,2,1,8,0.00
2014-1-8,30.4,21.3,10.3,24.6,15.9,5.5,92,80,70,30.48,30.38,2,0,5,0.04
2014-1-9,34.8,27.7,18.9,32.2,24.6,16.5,98,88,75,30.50,30.25,2,0,5,0.03
2014-1-10,46.1,39.3,32.6,46.1,38.8,32.1,100,98,96,30.25,29.67,1,0,6,0.38
2014-1-11,48.3,41.7,31.5,48.3,40.2,30.4,100,94,87,29.80,29.46,3,1,7,0.12
2014-1-12,47.1,38.4,30.3,38.5,33.6,29.3,97,83,67,30.05,29.80,3,1,8,0.00
2014-1-13,50.4,46.3,39.1,47.2,41.6,33.7,96,84,71,29.84,29.65,4,1,9,0.00
2014-1-14,48.6,36.7,27.1,39.5,31.6,21.9,97,82,67,29.95,29.72,5,1,12,0.01
2014-1-15,29.7,25.0,21.1,22.8,17.7,14.6,77,74,65,30.11,29.94,3,0,5,0.00
2014-1-16,32.0,25.9,19.2,28.1,21.7,14.5,93,84,77,30.07,29.72,4,1,10,0.00
2014-1-17,31.3,21.4,13.5,30.5,16.9,7.9,97,83,65,30.09,29.74,2,1,7,0.00
2014-1-18,28.3,21.4,14.3,27.1,17.8,10.4,95,86,70,30.08,29.77,3,1,9,0.00
2014-1-19,36.6,29.3,21.7,30.2,24.6,18.3,96,83,72,30.01,29.74,3,1,13,0.01
2014-1-20,43.7,37.4,32.0,34.4,30.8,27.2,87,77,67,29.90,29.70,1,0,4,0.07
2014-1-21,34.4,17.6,6.8,31.8,13.3,2.2,96,83,68,30.24,29.79,5,2,14,0.00
2014-1-22,18.4,9.8,1.0,16.5,5.6,-1.7,92,83,72,30.24,30.03,4,1,10,0.00
2014-1-23,13.5,7.2,0.4,7.3,0.3,-6.2,82,73,63,30.68,30.16,4,2,11,0.00
2014-1-24,23.3,10.7,-2.4,17.2,3.1,-5.8,86,72,56,30.68,29.88,5,2,12,0.00
2014-1-25,36.4,23.5,12.1,31.3,16.1,3.3,94,75,47,29.95,29.57,7,2,20,0.08
2014-1-26,45.1,29.1,10.9,35.1,20.2,3.1,84,69,59,29.95,29.56,3,1,8,0.15
2014-1-27,46.0,13.5,2.8,34.5,3.5,-5.1,89,64,51,30.47,29.59,9,3,16,0.00
2014-1-28,12.2,4.7,-2.7,0.8,-3.7,-8.6,79,68,57,30.53,30.37,2,0,5,0.00
2014-1-29,26.8,15.1,3.9,12.4,4.9,-2.4,82,64,52,30.39,30.27,2,0,6,0.00
2014-1-30,33.9,24.6,13.1,17.5,11.3,5.2,71,57,46,30.27,29.90,4,1,10,0.00
2014-1-31,40.1,35.8,32.7,32.0,21.2,16.8,94,55,46,30.13,29.99,2,0,4,0.00
2014-2-1,47.6,40.0,33.4,43.7,36.6,32.0,99,88,66,30.04,29.80,2,0,7,0.16
2014-2-2,37.7,30.8,25.9,36.8,28.4,22.3,97,91,83,30.23,29.94,4,2,13,0.17
2014-2-3,31.2,25.8,19.4,23.5,20.9,16.0,92,81,71,30.37,30.16,3,1,7,0.00
2014-2-4,31.0,26.1,22.7,25.9,22.5,19.4,95,86,75,30.38,29.85,4,1,15,0.00
2014-2-5,27.7,25.6,23.4,26.9,23.1,21.0,97,90,83,30.41,29.74,3,1,9,0.00
2014-2-6,23.7,17.6,5.4,21.2,12.8,-0.8,100,81,68,30.51,30.40,3,1,6,0.00
2014-2-7,17.2,8.7,0.0,7.1,1.5,-3.7,85,72,63,30.53,30.39,2,0,5,0.02
2014-2-8,27.7,19.6,8.4,24.8,14.6,3.2,90,81,73,30.41,30.14,2,0,6,0.00
2014-2-9,29.0,25.6,17.5,26.1,21.1,11.1,94,83,72,30.29,30.09,3,1,9,0.00
2014-2-10,18.1,12.6,5.4,11.5,6.2,-1.5,84,75,67,30.45,30.27,3,1,9,0.00
2014-2-11,17.2,8.0,-1.8,10.4,1.8,-5.8,83,75,68,30.55,30.42,2,0,5,0.00
2014-2-12,29.4,15.1,0.4,19.0,8.4,-2.8,87,75,63,30.44,30.04,1,0,3,0.00
2014-2-13,39.2,26.7,12.8,24.4,16.9,8.3,82,67,50,30.04,29.65,2,0,7,0.12
2014-2-14,33.2,27.1,19.0,27.4,22.4,15.2,92,83,69,29.87,29.64,4,1,8,0.00
2014-2-15,29.3,21.5,15.7,21.6,16.2,11.5,93,80,69,30.15,29.87,3,1,9,0.05
2014-2-16,31.9,25.9,19.0,26.9,22.1,15.5,94,85,73,30.30,29.96,4,1,10,0.01
2014-2-17,36.1,28.7,17.9,35.3,24.8,14.7,97,86,73,30.30,29.71,4,2,12,0.02
2014-2-18,52.3,41.8,31.7,35.7,32.8,28.3,90,72,51,30.09,29.76,2,0,6,0.02
2014-2-19,52.1,43.6,37.0,38.9,35.7,32.1,92,74,58,30.03,29.68,2,0,7,0.01
2014-2-20,63.9,49.4,32.8,58.6,45.4,29.6,94,86,74,29.96,29.41,5,1,12,0.20
2014-2-21,46.5,40.9,35.5,35.6,28.6,22.4,85,63,39,29.93,29.62,4,1,13,0.01
2014-2-22,59.5,46.1,35.6,38.7,32.3,24.9,82,60,39,30.04,29.89,3,1,7,0.00
2014-2-23,37.5,33.6,25.8,33.8,27.2,17.0,93,78,55,30.24,30.00,4,1,12,0.01
2014-2-24,36.9,28.9,21.1,18.2,16.1,14.2,80,60,42,30.32,30.20,3,1,10,0.00
2014-2-25,33.2,27.9,23.7,22.3,19.3,15.7,85,70,57,30.22,30.13,3,1,10,0.00
2014-2-26,25.6,18.8,9.9,18.3,6.8,2.4,83,60,41,30.26,29.92,5,2,15,0.00
2014-2-27,26.2,20.7,13.9,13.2,6.8,0.9,71,56,39,30.18,29.81,5,2,11,0.00
2014-2-28,38.5,25.0,11.4,19.1,11.1,4.2,85,57,37,30.25,30.05,3,1,8,0.00
2014-3-1,54.9,40.0,29.7,39.3,27.9,16.7,83,62,52,30.18,30.06,3,0,6,0.00
2014-3-2,33.1,24.6,17.5,28.4,22.2,15.3,94,90,83,30.27,30.12,3,2,9,0.00
2014-3-3,20.0,15.8,11.1,15.3,8.6,3.8,91,73,57,30.45,30.25,3,1,9,0.00
2014-3-4,31.5,20.8,8.9,20.2,12.4,2.9,85,70,53,30.40,30.19,2,0,5,0.15
2014-3-5,36.4,27.5,17.5,26.0,20.8,14.4,89,76,62,30.34,30.19,3,1,9,0.16
2014-3-6,42.7,31.4,20.5,31.4,23.9,16.2,92,74,60,30.34,30.09,2,0,5,0.07
2014-3-7,57.8,41.5,25.5,40.7,32.3,23.5,93,72,47,30.09,29.91,2,0,6,0.01
2014-3-8,54.9,40.6,30.6,43.6,34.8,24.6,96,80,60,30.21,29.94,5,1,11,0.00
2014-3-9,49.8,36.4,24.3,32.0,26.3,20.7,92,68,45,30.29,30.01,4,1,9,0.00
2014-3-10,64.0,49.2,35.6,46.7,39.4,30.6,91,70,51,30.02,29.69,3,0,7,0.00
2014-3-11,75.5,60.1,46.4,53.8,46.3,41.6,89,63,33,29.73,29.50,3,0,9,0.34
2014-3-12,59.2,40.4,24.9,54.7,36.8,17.1,99,87,65,30.05,29.21,7,3,19,0.44
2014-3-13,41.2,34.1,21.7,25.4,22.1,13.7,75,62,51,30.11,30.05,4,1,11,0.00
2014-3-14,63.6,49.3,33.0,45.5,35.2,24.0,75,60,43,30.06,29.71,5,2,20,0.00
2014-3-15,61.7,50.3,37.3,40.7,36.4,32.8,85,61,40,30.07,29.89,3,1,8,0.00
2014-3-16,42.1,33.2,25.9,33.6,23.8,15.0,79,69,56,30.11,29.98,5,2,13,0.00
2014-3-17,41.7,30.7,22.3,26.8,19.9,14.2,73,64,53,30.01,29.83,2,1,8,0.00
2014-3-18,53.4,39.6,25.0,43.2,33.2,23.0,94,79,61,29.95,29.76,4,1,8,0.00
2014-3-19,53.7,47.7,38.6,48.7,42.1,28.9,95,81,68,30.05,29.71,4,2,11,0.01
2014-3-20,56.7,44.2,31.8,34.4,30.1,25.5,78,59,38,30.12,29.97,4,1,10,0.00
2014-3-21,71.8,52.5,34.7,43.4,30.8,-99.9,89,52,26,30.00,29.77,4,1,16,0.00
2014-3-22,59.4,46.2,38.6,39.7,32.7,30.1,76,60,37,30.18,29.77,5,2,10,0.00
2014-3-23,40.4,35.3,28.8,32.1,22.1,16.1,79,59,39,30.34,30.17,4,2,10,0.00
2014-3-24,42.2,31.9,20.9,18.9,16.4,11.5,84,55,31,30.36,30.10,2,0,7,0.00
2014-3-25,35.2,30.3,25.5,27.9,18.4,11.9,90,62,40,30.23,30.00,6,2,17,0.00
2014-3-26,42.4,30.9,19.2,16.5,12.7,10.2,73,49,29,30.38,30.19,3,1,8,0.00
2014-3-27,57.9,44.5,33.6,42.2,26.8,13.6,68,51,37,30.20,29.72,5,2,10,0.12
2014-3-28,55.9,50.6,43.8,50.4,43.7,38.7,90,77,59,30.07,29.65,5,2,14,0.24
2014-3-29,43.8,39.4,37.7,38.9,36.7,34.2,96,90,82,30.16,29.95,5,2,10,0.99
2014-3-30,57.9,42.9,30.0,35.6,32.2,27.6,91,69,42,30.25,30.11,3,1,8,0.00
2014-3-31,68.5,52.7,34.3,37.7,34.5,31.7,92,55,27,30.15,29.89,3,1,8,0.00
2014-4-1,71.2,62.4,52.3,46.8,37.7,25.9,81,42,19,30.05,29.83,3,1,10,0.04
2014-4-2,56.2,50.2,44.8,51.2,46.6,41.3,97,88,73,30.10,29.92,3,0,5,1.37
2014-4-3,66.2,58.2,51.4,61.6,56.4,50.6,98,94,82,29.98,29.59,3,1,8,2.09
2014-4-4,59.1,51.5,42.0,58.1,46.7,30.7,98,84,64,30.00,29.42,5,2,10,0.84
2014-4-5,52.2,43.8,37.2,33.6,30.7,27.6,72,61,45,30.19,30.00,4,1,11,0.00
2014-4-6,58.9,46.3,31.6,37.4,33.0,29.7,96,64,34,30.17,29.90,3,1,7,0.00
2014-4-7,51.9,48.2,42.9,51.1,43.1,34.8,97,84,53,29.90,29.34,4,1,10,0.69
2014-4-8,59.2,48.4,41.4,49.6,44.5,40.3,97,87,65,29.84,29.60,2,0,5,0.05
2014-4-9,63.5,46.9,40.6,43.7,22.0,-99.9,87,52,33,30.04,29.84,2,0,5,0.00
2014-4-10,76.3,39.1,47.3,46.1,-3.7,-99.9,67,38,33,30.00,29.76,5,2,15,0.00
2014-4-11,72.2,58.8,53.8,55.5,30.8,-99.9,89,46,20,30.03,29.88,3,0,10,0.03
2014-4-12,71.6,27.3,43.8,55.5,-24.9,-99.9,87,38,56,30.08,29.80,5,1,10,0.00
2014-4-13,81.9,43.4,71.2,63.9,-9.9,-99.9,71,32,49,29.86,29.61,5,2,11,0.00
2014-4-14,73.7,58.3,35.7,61.9,53.4,33.9,97,85,54,29.84,29.54,5,2,12,0.30
2014-4-15,42.1,35.9,31.2,33.7,28.8,22.8,96,77,51,30.24,29.83,5,2,13,0.13
2014-4-16,53.7,41.0,28.9,31.5,26.4,22.7,80,58,38,30.39,30.19,4,1,9,0.00
2014-4-17,70.0,53.9,35.2,45.2,37.7,29.3,81,56,36,30.29,30.20,3,1,7,0.00
2014-4-18,73.5,58.3,42.5,50.5,44.8,39.8,92,64,41,30.26,30.14,3,0,5,0.00
2014-4-19,72.7,59.7,44.6,51.5,44.3,39.1,82,59,39,30.28,30.17,3,1,9,0.00
2014-4-20,78.7,61.9,43.4,52.8,44.7,37.6,83,56,33,30.23,30.04,2,0,6,0.00
2014-4-21,80.1,64.5,49.6,58.9,52.1,46.3,90,67,41,30.04,29.81,2,0,6,0.01
2014-4-22,63.6,58.0,48.4,58.2,46.5,36.3,88,67,49,29.95,29.76,3,1,6,0.00
2014-4-23,62.4,51.7,39.9,40.7,36.9,31.7,74,58,41,30.10,29.94,2,1,7,0.00
2014-4-24,70.5,60.2,49.6,48.2,42.8,38.7,68,53,40,30.04,29.66,4,2,10,0.00
2014-4-25,70.2,61.3,54.8,57.7,50.6,43.8,98,71,42,29.87,29.51,5,1,11,0.28
2014-4-26,83.3,67.7,53.9,56.2,49.5,43.8,71,54,34,29.88,29.81,2,0,11,0.00
2014-4-27,78.7,65.6,52.7,60.4,51.0,42.9,80,60,46,29.95,29.75,4,1,15,0.00
2014-4-28,71.0,63.7,56.6,66.6,60.5,55.6,100,90,76,29.77,29.52,5,1,9,1.38
2014-4-29,78.0,62.6,53.0,62.8,55.7,48.0,100,81,39,29.76,29.47,4,1,9,0.35
2014-4-30,70.1,57.1,48.7,56.8,51.2,41.4,99,82,54,29.88,29.70,2,1,8,0.00
2014-5-1,60.4,51.8,44.2,44.2,42.0,40.3,87,70,53,29.90,29.82,3,1,10,0.00
2014-5-2,54.5,52.1,49.9,44.8,43.2,41.5,75,72,69,29.89,29.85,1,0,3,0.00
2014-5-3,71.1,59.2,47.2,49.4,43.9,39.6,86,60,33,29.90,29.78,4,1,12,0.00
2014-5-4,75.8,64.3,54.4,53.7,46.7,38.4,74,54,42,29.98,29.87,3,1,9,0.00
2014-5-5,79.7,62.5,49.0,58.8,46.1,34.6,68,55,47,29.97,29.72,3,1,7,0.00
2014-5-6,80.2,65.9,51.8,59.7,51.4,42.8,76,60,47,29.91,29.79,3,1,8,0.00
2014-5-7,87.5,73.2,56.4,67.2,59.6,53.5,92,65,45,29.89,29.81,3,1,9,0.00
2014-5-8,88.3,75.8,63.9,70.0,63.5,57.9,86,67,51,29.97,29.88,4,1,9,0.00
2014-5-9,79.6,72.3,64.3,68.2,63.0,58.1,90,73,63,29.85,29.74,3,1,12,0.01
2014-5-10,76.7,67.0,62.3,68.6,63.8,59.3,100,90,69,29.95,29.85,1,-766,3,1.04
2014-5-11,84.0,69.8,59.7,79.6,66.0,59.4,100,89,64,30.09,29.89,0,-999,0,0.42
2014-5-12,86.1,73.5,66.1,74.5,69.0,63.8,98,87,66,29.99,29.89,0,-999,0,0.02
2014-5-13,86.7,73.4,62.1,74.2,68.8,61.4,100,87,62,30.04,29.90,0,-999,0,0.69
2014-5-14,62.0,57.8,55.1,61.4,57.4,54.4,100,99,95,30.08,29.75,0,-999,0,1.30
2014-5-15,60.9,53.9,46.0,60.8,50.4,42.9,100,88,73,30.03,29.73,0,-999,0,0.30
2014-5-16,59.9,50.8,44.5,50.5,44.5,40.8,98,81,53,30.04,29.93,0,-999,0,0.10
2014-5-17,59.4,50.4,43.6,46.6,43.1,40.1,95,78,52,30.22,30.03,0,-999,0,0.02
2014-5-18,66.5,54.0,38.9,47.1,43.2,37.7,98,70,45,30.28,30.19,0,-999,0,0.00
2014-5-19,75.3,60.0,43.1,53.6,48.1,41.8,96,68,43,30.26,30.02,0,-999,0,0.00
2014-5-20,83.2,71.1,59.2,69.0,60.8,49.9,82,70,59,30.05,29.88,0,-999,0,0.00
2014-5-21,88.9,72.6,63.9,75.5,66.1,60.8,100,81,60,30.02,29.80,0,-999,0,1.06
2014-5-22,80.2,70.9,61.8,68.6,62.7,57.0,100,78,53,30.01,29.81,0,-999,0,0.02
2014-5-23,77.5,68.4,56.9,61.0,55.9,52.8,90,66,49,30.11,30.00,0,-999,0,0.00
2014-5-24,79.8,67.5,53.3,60.0,56.1,51.1,93,69,43,30.17,30.06,0,-999,0,0.00
2014-5-25,83.0,70.9,57.9,63.4,59.8,56.5,96,71,45,30.12,30.01,0,-999,0,0.00
2014-5-26,89.7,75.3,59.8,73.8,65.7,57.7,94,74,54,30.07,29.92,0,-999,0,0.00
2014-5-27,90.2,79.8,69.4,74.3,69.9,66.0,90,73,54,29.97,29.85,0,-999,0,0.00
2014-5-28,88.0,77.7,66.5,71.9,68.0,63.1,91,73,53,29.95,29.86,2,-764,5,0.04
2014-5-29,85.9,75.4,66.2,73.9,69.9,65.9,100,84,62,30.00,29.91,1,0,4,0.09
2014-5-30,88.0,76.9,65.6,73.6,65.9,58.5,92,70,49,30.07,29.97,2,0,6,0.00
2014-5-31,88.2,75.6,59.8,65.2,59.9,56.8,93,61,40,30.13,30.01,2,0,8,0.00
2014-6-1,91.5,74.2,59.5,75.3,65.4,57.2,100,77,49,30.07,29.94,2,0,7,0.44
2014-6-2,80.0,72.8,69.4,74.4,70.5,68.7,100,93,80,30.01,29.89,3,1,7,0.26
2014-6-3,88.9,77.1,69.4,78.4,72.7,68.7,100,87,61,29.95,29.85,2,0,5,0.22
2014-6-4,85.0,73.4,64.8,77.7,70.0,61.8,100,90,68,29.85,29.63,5,1,12,0.90
2014-6-5,80.0,69.9,58.8,64.1,60.0,57.0,95,73,50,29.91,29.76,3,0,7,0.00
2014-6-6,83.0,70.9,57.0,66.9,59.5,55.5,96,70,46,29.96,29.87,1,0,5,0.00
2014-6-7,85.7,73.3,57.5,64.9,60.4,55.8,95,67,44,29.99,29.71,2,0,7,0.00
2014-6-8,79.1,70.9,64.0,68.5,64.9,60.5,99,83,61,29.92,29.62,4,1,14,0.17
2014-6-9,79.3,70.4,63.6,65.5,62.8,60.2,94,78,56,29.92,29.82,1,0,7,0.00
2014-6-10,74.5,68.6,63.5,72.4,66.5,62.4,100,93,83,29.84,29.69,2,0,7,0.31
2014-6-11,77.5,70.8,66.6,71.9,68.6,65.7,99,93,80,29.72,29.65,1,0,6,0.46
2014-6-12,83.0,73.5,64.0,70.9,67.6,63.7,99,83,63,29.79,29.71,1,0,3,0.11
2014-6-13,78.8,70.9,61.9,68.1,60.3,52.9,92,71,43,29.99,29.78,4,1,9,0.01
2014-6-14,78.9,66.7,50.7,57.7,53.2,48.1,93,65,43,30.10,29.98,2,0,7,0.00
2014-6-15,89.3,73.4,55.6,72.3,62.6,52.5,93,70,47,30.04,29.89,2,0,7,0.00
2014-6-16,89.5,79.4,72.4,78.3,72.7,68.0,89,80,67,30.07,29.95,1,0,7,0.00
2014-6-17,94.1,82.6,70.0,78.7,73.9,68.2,95,76,58,30.02,29.89,3,1,11,0.00
2014-6-18,94.3,84.1,72.9,78.6,74.9,71.2,95,75,57,30.01,29.89,2,0,9,0.00
2014-6-19,93.6,84.4,74.0,79.9,75.2,70.5,93,75,62,30.02,29.93,2,0,5,0.00
2014-6-20,93.3,77.0,71.4,79.9,73.6,69.2,100,90,62,29.97,29.84,3,0,5,0.96
2014-6-21,90.4,79.5,69.4,75.6,71.9,67.3,100,80,49,29.91,29.80,2,0,6,0.00
2014-6-22,89.8,78.9,71.1,79.4,72.1,67.7,93,80,63,29.87,29.76,1,0,5,0.23
2014-6-23,94.2,78.6,68.5,78.4,71.8,67.3,97,81,53,29.86,29.79,3,0,8,0.04
2014-6-24,88.0,75.1,70.0,76.8,72.1,69.1,99,91,66,29.87,29.77,2,0,6,0.80
2014-6-25,88.5,77.4,68.6,76.7,71.6,68.4,100,84,58,29.93,29.82,3,0,8,0.00
2014-6-26,89.5,79.6,68.2,75.1,70.1,67.0,97,75,53,29.98,29.89,1,0,4,0.00
2014-6-27,92.8,79.2,69.1,76.1,71.3,66.7,93,78,53,30.00,29.93,2,0,7,0.02
2014-6-28,87.8,77.9,71.8,77.2,73.3,70.3,97,86,69,30.06,29.97,1,0,6,0.01
2014-6-29,86.2,78.2,71.3,78.1,73.9,70.2,97,87,73,30.02,29.92,1,0,5,0.09
2014-6-30,90.9,78.1,70.0,81.4,74.3,69.0,99,89,71,29.96,29.72,4,0,10,0.39
2014-7-1,92.7,80.1,67.8,79.9,74.0,67.2,99,83,58,29.82,29.69,5,0,8,0.26
2014-7-2,86.7,74.8,65.6,74.8,68.3,60.3,100,82,59,29.96,29.78,3,0,7,0.01
2014-7-3,76.2,67.5,58.9,64.4,60.4,57.3,98,79,60,30.12,29.94,3,1,8,0.00
2014-7-4,81.8,69.5,54.8,62.1,57.7,53.1,96,69,45,30.25,30.12,3,0,7,0.00
2014-7-5,84.1,71.1,55.6,63.5,59.4,54.2,96,70,44,30.25,30.05,1,0,5,0.00
2014-7-6,86.8,75.4,64.9,70.4,65.5,61.8,91,73,55,30.06,29.85,2,0,6,0.00
2014-7-7,88.0,76.2,68.6,76.8,69.8,64.0,95,81,68,29.86,29.70,3,0,7,0.04
2014-7-8,84.9,76.9,70.9,74.4,71.3,68.5,100,84,65,29.82,29.65,2,0,7,0.40
2014-7-9,85.7,75.6,65.0,69.8,66.6,63.0,94,75,54,29.96,29.82,2,0,5,0.00
2014-7-10,83.6,72.8,64.0,64.3,62.6,61.0,91,72,51,30.09,29.95,1,0,5,0.00
2014-7-11,87.4,74.5,59.0,69.2,63.2,57.3,94,71,48,30.15,30.06,1,0,4,0.00
2014-7-12,84.7,76.4,66.9,75.4,70.2,64.4,95,82,67,30.12,29.94,2,0,5,0.00
2014-7-13,91.8,80.5,73.4,80.9,75.4,72.2,100,85,66,29.95,29.83,3,0,6,0.48
2014-7-14,87.7,74.3,67.8,77.3,71.6,65.5,100,92,63,29.86,29.75,6,0,11,1.29
2014-7-15,74.9,67.2,58.6,68.0,60.1,57.1,99,80,58,29.92,29.78,3,1,9,0.26
2014-7-16,76.6,66.1,55.3,62.1,58.0,53.7,95,77,54,29.99,29.91,2,0,7,0.00
2014-7-17,80.2,67.8,54.8,61.3,57.2,53.4,96,72,48,30.08,29.99,2,0,6,0.00
2014-7-18,81.3,67.7,56.6,65.7,60.1,54.9,94,78,54,30.13,30.04,2,0,6,0.00
2014-7-19,80.0,70.4,63.3,67.7,64.1,60.6,94,82,64,30.04,29.95,1,0,4,0.00
2014-7-20,85.2,73.4,60.9,71.2,66.3,60.0,98,80,59,30.02,29.94,1,0,5,0.00
2014-7-21,89.5,76.8,63.8,75.4,68.7,62.8,98,78,53,30.06,29.98,1,0,4,0.00
2014-7-22,93.5,80.3,65.9,76.4,71.5,64.7,98,77,53,30.04,29.93,1,0,6,0.00
2014-7-23,84.3,75.4,69.4,76.6,72.5,67.1,98,91,72,30.00,29.90,2,0,10,0.41
2014-7-24,80.5,70.8,61.6,67.0,61.6,58.1,97,75,52,30.03,29.93,3,1,8,0.00
2014-7-25,81.4,68.9,55.5,67.1,61.3,54.1,96,78,53,30.06,29.88,1,0,4,0.00
2014-7-26,88.1,76.8,67.5,79.1,71.6,64.6,98,84,70,29.95,29.74,2,0,6,0.04
2014-7-27,87.4,75.0,70.1,80.8,71.5,63.3,100,90,67,29.81,29.64,4,1,10,1.06
2014-7-28,75.4,67.8,58.6,65.2,61.1,52.1,94,80,66,29.99,29.76,4,1,10,0.00
2014-7-29,77.6,65.2,52.4,64.2,57.4,50.0,95,77,56,30.03,29.98,2,0,10,0.03
2014-7-30,83.8,70.8,59.1,67.8,64.1,58.3,98,81,56,30.02,29.97,2,0,5,0.00
2014-7-31,85.1,74.1,61.5,69.3,65.8,60.3,98,77,53,30.03,29.99,2,0,5,0.00
2014-8-1,87.1,74.2,61.8,71.3,66.0,60.8,98,77,55,30.05,29.97,1,0,4,0.00
2014-8-2,86.1,32.0,69.2,70.2,27.3,64.1,90,28,57,30.07,29.99,3,0,8,0.00
2014-8-3,87.5,75.0,62.2,71.2,64.9,59.2,97,74,40,30.10,30.01,2,0,8,0.00
2014-8-4,88.8,74.9,60.2,69.4,64.4,58.8,96,73,45,30.08,29.99,2,0,5,0.00
2014-8-5,84.3,73.1,62.7,72.5,67.6,61.2,97,84,66,30.02,29.93,1,0,3,0.00
2014-8-6,84.9,75.7,66.4,73.5,69.7,65.8,98,83,65,29.98,29.91,3,0,7,0.00
2014-8-7,82.8,73.4,65.2,68.8,65.4,62.3,95,77,59,30.03,29.94,2,0,7,0.00
2014-8-8,74.8,68.1,64.2,68.5,65.5,62.8,98,92,74,29.99,29.93,3,0,10,0.29
2014-8-9,82.4,74.1,67.3,74.3,70.2,65.8,98,88,74,29.97,29.88,2,0,5,0.00
2014-8-10,83.6,76.3,70.5,77.8,73.4,69.7,98,91,79,29.93,29.83,1,0,3,0.02
2014-8-11,85.9,76.9,71.3,77.3,73.2,70.3,100,89,72,29.86,29.73,3,0,9,0.00
2014-8-12,76.0,70.1,62.0,70.3,65.2,58.8,97,85,69,29.92,29.73,4,1,13,0.00
2014-8-13,83.3,69.8,57.1,65.9,60.3,56.3,97,75,45,30.01,29.92,3,0,9,0.00
2014-8-14,84.3,75.2,65.5,72.9,64.8,58.8,89,71,53,29.99,29.91,3,1,8,0.01
2014-8-15,80.8,67.2,52.5,61.0,54.0,45.5,92,66,31,30.05,29.94,2,0,5,0.00
2014-8-16,80.8,70.1,60.1,72.4,64.6,56.9,94,83,73,29.96,29.90,1,0,3,0.00
2014-8-17,79.2,73.3,68.9,73.5,69.8,65.5,97,89,81,29.94,29.81,1,0,4,0.02
2014-8-18,87.4,77.4,70.8,76.2,72.6,69.9,98,86,65,29.81,29.73,2,0,5,0.00
2014-8-19,91.0,79.6,68.6,76.8,73.4,68.1,99,83,62,29.79,29.70,2,0,6,0.00
2014-8-20,87.8,75.1,67.1,78.8,72.0,66.6,100,91,70,29.96,29.75,6,0,11,0.65
2014-8-21,90.9,79.1,70.1,80.6,75.0,69.5,98,88,70,29.98,29.88,1,0,4,0.06
2014-8-22,90.3,80.8,74.1,80.8,76.7,73.2,98,88,71,29.96,29.87,2,0,5,0.00
2014-8-23,92.8,79.4,71.9,81.8,75.9,71.8,100,90,69,29.93,29.83,6,0,16,0.43
2014-8-24,91.0,79.7,69.8,81.0,75.7,69.8,100,89,70,29.96,29.88,1,0,6,0.12
2014-8-25,94.4,82.7,71.5,82.0,75.8,70.9,99,81,61,30.00,29.94,1,0,5,0.00
2014-8-26,94.5,80.7,71.1,82.3,74.7,70.1,98,83,60,30.06,29.96,3,0,6,0.00
2014-8-27,93.2,81.0,70.3,79.4,74.3,69.7,98,82,62,30.03,29.94,2,0,6,0.01
2014-8-28,87.5,79.0,72.2,75.1,72.0,68.7,92,79,66,29.99,29.93,1,0,3,0.00
2014-8-29,91.5,79.3,68.7,79.3,71.5,65.2,89,78,63,29.99,29.87,1,0,5,0.00
2014-8-30,79.1,73.7,69.6,75.8,70.7,66.0,100,91,82,29.99,29.91,2,0,6,0.35
2014-8-31,84.5,75.4,70.2,76.2,72.8,70.0,100,92,74,29.96,29.88,1,0,5,0.29
2014-9-1,87.3,78.4,72.3,78.0,74.8,71.5,99,89,73,29.92,29.81,3,0,10,0.01
2014-9-2,80.5,73.4,66.7,74.8,71.4,66.7,100,94,80,29.94,29.84,4,0,5,1.34
2014-9-3,87.3,75.2,63.5,75.6,68.6,63.5,100,82,55,30.02,29.93,1,0,4,0.00
2014-9-4,91.6,78.9,66.3,78.5,72.3,65.7,100,82,58,30.05,29.94,1,0,4,0.00
2014-9-5,93.3,81.9,71.3,81.7,76.3,70.4,98,84,68,30.05,29.88,2,0,6,0.00
2014-9-6,80.6,71.8,63.8,77.4,67.9,60.1,96,88,77,30.08,29.92,3,0,7,0.00
2014-9-7,79.2,68.0,55.4,64.0,59.0,54.1,97,75,53,30.16,30.04,2,0,5,0.00
2014-9-8,82.4,68.9,54.7,63.5,58.7,53.3,96,73,45,30.08,29.95,1,0,4,0.00
2014-9-9,84.0,69.6,55.7,69.1,62.4,54.7,98,80,56,30.05,29.89,2,0,6,0.00
2014-9-10,83.5,74.6,66.7,76.7,71.0,63.5,99,89,79,29.90,29.65,4,1,14,0.76
2014-9-11,70.5,64.6,59.1,70.5,61.7,55.2,100,90,81,30.13,29.72,2,1,5,0.18
2014-9-12,67.4,61.6,57.3,58.5,56.2,53.7,91,83,71,30.17,30.08,2,0,5,0.00
2014-9-13,66.2,58.2,51.4,56.8,51.2,48.3,93,79,56,30.28,30.10,4,1,10,0.00
2014-9-14,71.6,58.4,45.2,55.6,50.7,43.9,96,78,53,30.28,30.15,1,0,4,0.00
2014-9-15,72.4,58.4,48.4,60.1,54.6,47.3,99,88,61,30.17,30.00,2,0,4,0.43
2014-9-16,62.1,57.5,50.6,58.8,55.2,49.5,100,92,76,30.15,30.05,2,0,5,0.14
2014-9-17,68.0,56.0,44.5,56.4,51.2,44.0,100,85,64,30.07,29.92,1,0,4,0.00
2014-9-18,75.5,62.5,49.9,60.3,54.0,48.9,98,76,48,30.07,29.98,2,0,7,0.00
2014-9-19,56.6,56.1,55.7,53.3,52.9,52.4,89,89,89,30.07,30.07,0,0,0,0.00
2014-9-20,80.6,75.2,72.1,70.6,69.4,68.5,89,82,71,29.88,29.83,1,0,2,0.00
2014-9-21,77.6,70.2,57.6,69.5,61.5,52.6,98,76,50,30.02,29.76,5,1,13,0.04
2014-9-22,67.6,58.4,49.3,53.6,49.9,46.2,91,75,53,30.23,30.02,3,1,7,0.00
2014-9-23,74.0,59.3,44.5,55.2,50.0,43.2,97,75,46,30.32,30.21,1,0,5,0.00
2014-9-24,79.8,63.2,46.6,62.5,54.1,45.2,96,75,47,30.31,30.20,1,0,5,0.00
2014-9-25,81.3,65.2,49.4,63.1,56.4,48.3,97,76,42,30.27,30.13,1,0,4,0.00
2014-9-26,85.0,68.5,53.5,69.0,59.6,52.4,97,76,46,30.21,30.10,1,0,6,0.00
2014-9-27,84.0,68.7,55.3,68.0,59.7,53.6,95,76,48,30.17,30.06,2,0,6,0.00
2014-9-28,85.0,71.1,59.4,70.4,62.8,56.8,92,77,53,30.09,29.97,1,0,5,0.00
2014-9-29,84.0,69.2,55.9,65.4,59.3,54.8,98,74,41,29.98,29.86,2,0,7,0.00
2014-9-30,76.6,63.9,54.9,65.3,59.0,53.2,96,85,67,29.92,29.84,2,0,8,0.00
2014-10-1,81.4,65.4,49.4,65.5,57.4,47.7,95,77,57,29.98,29.87,1,0,3,0.00
2014-10-2,86.7,71.7,58.2,71.2,63.9,56.2,95,78,59,29.95,29.70,2,0,7,0.00
2014-10-3,75.3,64.0,45.9,68.8,59.8,43.5,98,87,69,29.84,29.51,5,1,11,0.16
2014-10-4,53.0,47.8,42.6,44.8,38.7,34.5,92,72,56,29.87,29.78,3,1,11,0.00
2014-10-5,61.8,50.3,40.4,49.6,42.1,36.3,87,75,47,29.86,29.67,2,0,8,0.02
2014-10-6,68.8,54.2,46.3,58.9,50.9,44.8,98,89,61,29.79,29.63,4,0,7,0.24
2014-10-7,62.1,54.5,47.4,60.2,53.7,46.9,100,97,89,29.85,29.69,1,0,4,0.50
2014-10-8,69.7,57.8,45.2,55.7,50.6,44.7,99,79,52,30.05,29.85,3,0,9,0.01
2014-10-9,59.1,53.3,47.1,54.5,50.9,46.0,97,91,81,30.13,30.02,1,0,4,0.00
2014-10-10,54.5,52.2,49.4,52.8,50.7,48.3,98,95,86,30.07,30.00,1,0,4,0.28
2014-10-11,60.5,52.4,44.8,51.4,47.4,42.6,97,84,61,30.15,30.00,2,0,6,0.00
2014-10-12,65.0,53.6,41.1,59.7,49.9,39.6,99,88,76,30.11,29.90,1,0,3,0.14
2014-10-13,76.2,68.2,59.9,69.9,65.4,59.6,100,92,78,29.92,29.65,3,1,10,0.60
2014-10-14,67.0,62.4,55.9,65.1,60.1,53.3,100,92,75,29.68,29.49,3,1,9,1.00
2014-10-15,57.2,55.7,54.5,56.3,54.7,53.2,100,96,92,29.72,29.64,1,0,4,0.09
2014-10-16,64.6,58.5,54.7,57.9,55.4,52.3,100,90,77,29.81,29.69,1,0,6,0.06
2014-10-17,72.0,59.2,49.2,58.9,52.5,48.6,99,80,56,29.81,29.64,5,1,13,0.00
2014-10-18,58.0,52.2,46.6,50.7,47.8,45.0,95,85,74,30.13,29.81,4,2,12,0.07
2014-10-19,57.1,49.8,45.2,46.2,43.7,40.5,95,80,64,30.23,30.01,2,0,6,0.02
2014-10-20,67.9,56.0,45.2,57.6,50.2,43.0,93,82,64,30.02,29.80,2,0,7,0.00
2014-10-21,58.2,52.6,45.9,50.8,47.1,42.5,94,82,67,30.16,29.90,3,1,8,0.00
2014-10-22,58.4,49.0,39.1,47.7,42.9,37.2,94,81,63,30.30,30.16,2,0,5,0.00
2014-10-23,61.1,48.3,35.3,48.4,42.0,34.0,98,81,54,30.25,30.08,1,0,4,0.00
2014-10-24,66.7,53.9,39.5,55.3,47.9,38.2,98,82,60,30.10,29.98,1,0,3,0.00
2014-10-25,75.7,61.4,50.0,63.3,54.9,48.3,97,81,55,30.00,29.88,2,0,8,0.00
2014-10-26,71.1,58.9,44.0,52.0,43.2,38.5,88,58,31,30.00,29.89,1,0,3,0.00
2014-10-27,82.4,65.5,49.1,65.4,54.8,44.6,90,71,46,29.89,29.73,3,1,11,0.00
2014-10-28,71.5,63.2,53.5,63.5,56.2,44.0,98,78,61,29.99,29.78,4,0,12,0.67
2014-10-29,58.7,51.0,42.2,44.8,41.6,37.5,92,71,55,30.12,29.98,3,1,8,0.00
2014-10-30,55.7,47.8,35.8,44.0,38.8,33.4,92,72,56,30.16,30.01,1,0,4,0.00
2014-10-31,49.0,42.3,34.1,45.0,39.4,32.8,96,90,78,30.11,29.95,6,2,14,0.24
2014-11-1,43.9,36.9,31.6,34.3,30.1,26.9,91,76,63,30.37,30.10,6,2,14,0.00
2014-11-2,50.4,38.4,25.4,32.8,27.9,23.1,93,68,42,30.48,30.32,1,0,5,0.00
2014-11-3,64.8,52.0,41.5,38.9,33.7,30.1,67,51,31,30.33,30.13,2,0,9,0.00
2014-11-4,60.2,52.8,49.3,52.7,44.5,32.8,98,75,51,30.15,30.03,2,0,8,0.24
2014-11-5,55.6,48.9,43.7,50.7,46.2,43.0,99,91,69,30.20,29.98,1,0,3,0.07
2014-11-6,51.5,45.8,40.8,48.3,42.5,33.8,97,88,76,30.12,29.84,6,2,15,0.02
2014-11-7,47.9,41.7,37.0,33.7,31.2,29.0,78,67,52,30.21,29.95,3,1,9,0.00
2014-11-8,53.4,34.3,37.0,42.0,28.3,30.2,89,60,58,30.01,29.82,3,1,8,0.00
2014-11-9,53.4,33.4,32.4,37.3,23.9,29.2,89,44,44,30.02,29.88,2,0,5,0.00
2014-11-10,63.4,51.6,39.7,43.5,36.7,32.5,76,58,44,29.92,29.68,3,1,10,0.00
2014-11-11,62.9,44.1,36.0,53.9,36.0,30.3,94,62,49,30.08,29.73,4,1,11,0.02
2014-11-12,37.9,32.3,29.7,30.7,25.5,21.8,82,71,70,30.29,30.08,3,1,9,0.00
2014-11-13,29.7,24.4,23.2,22.6,17.3,16.0,80,67,67,30.35,30.26,3,1,8,0.00
2014-11-14,35.2,25.7,18.6,19.6,16.7,13.0,90,71,43,30.41,30.33,2,0,6,0.00
2014-11-15,36.9,26.8,16.0,26.1,19.1,14.1,93,71,53,30.45,30.23,1,0,4,0.00
2014-11-16,36.1,32.9,31.2,32.8,29.6,25.1,96,88,73,30.24,29.90,1,0,3,0.04
2014-11-17,31.6,24.2,17.1,30.6,19.5,9.2,96,82,63,30.12,29.83,2,1,11,0.00
2014-11-18,22.7,17.8,12.6,11.2,8.7,5.7,76,67,55,30.29,30.11,3,1,7,0.00
2014-11-19,37.0,26.6,14.4,27.4,18.3,8.8,78,71,63,30.28,29.97,4,1,9,0.01
2014-11-20,33.1,26.8,21.8,17.8,16.2,13.5,73,64,50,30.29,30.10,3,1,8,0.00
2014-11-21,35.9,26.8,15.3,17.0,13.1,9.9,81,58,37,30.53,30.30,2,0,5,0.00
2014-11-22,58.8,46.3,31.5,45.3,35.6,17.0,86,67,54,30.34,29.98,2,0,7,0.01
2014-11-23,58.3,53.5,49.4,56.4,47.0,38.2,96,79,58,29.99,29.16,3,1,10,1.09
2014-11-24,60.0,48.1,37.5,56.6,42.3,28.9,95,81,64,29.90,29.16,4,2,12,0.50
2014-11-25,39.7,34.4,27.6,30.6,28.2,24.8,90,78,67,30.19,29.89,2,0,6,0.00
2014-11-26,38.1,31.8,27.9,28.3,26.5,25.1,90,81,66,30.18,30.03,1,0,4,0.00
2014-11-27,33.2,29.4,27.5,26.0,23.6,20.9,85,79,69,30.41,30.07,3,1,10,0.00
2014-11-28,36.4,29.6,23.5,25.3,22.1,19.5,86,74,62,30.42,30.03,3,1,7,0.00
2014-11-29,55.1,24.9,33.7,46.8,19.4,24.2,81,43,66,30.03,29.80,3,1,10,0.00
2014-11-30,59.8,0.5,59.8,55.9,0.4,55.9,87,1,87,30.10,29.81,3,1,8,0.00
2014-12-1,35.3,2.1,34.8,32.5,1.9,31.3,90,5,86,30.54,30.09,3,1,9,0.00
2014-12-2,34.7,4.8,33.0,32.3,4.4,30.1,91,13,89,30.47,30.15,2,0,6,0.01
2014-12-3,42.5,11.0,34.4,35.6,9.6,32.7,94,23,71,30.37,30.15,2,0,5,0.02
2014-12-4,34.6,0.9,34.4,32.3,0.9,31.8,92,2,90,30.39,30.20,2,0,5,0.01
2014-12-5,43.8,3.4,41.3,43.8,3.4,41.3,100,8,99,30.20,30.01,2,0,4,0.01
2014-12-6,40.0,2.6,39.4,37.2,2.5,36.7,90,6,89,30.55,30.01,4,2,12,0.00
2014-12-7,41.6,23.9,27.6,33.8,20.3,25.8,93,51,72,30.59,30.31,3,0,8,0.00
2014-12-8,46.5,39.4,31.4,41.3,35.9,29.3,96,87,77,30.31,30.07,2,0,4,0.02
2014-12-9,41.4,38.2,34.7,40.3,35.8,32.9,96,91,83,30.26,30.06,3,1,9,0.04
2014-12-10,38.3,35.4,33.2,34.1,30.3,27.5,90,82,75,30.31,30.20,3,1,8,0.00
2014-12-11,39.0,33.0,28.5,29.0,27.4,25.3,88,80,67,30.28,30.18,4,1,6,0.00
2014-12-12,43.7,33.9,24.7,37.5,30.3,22.9,94,87,73,30.37,30.27,3,0,6,0.00
2014-12-13,47.8,42.1,37.1,41.2,37.6,34.2,91,84,76,30.31,30.15,1,0,4,0.00
2014-12-14,47.2,44.7,42.3,45.3,42.8,40.2,97,93,86,30.17,30.08,1,0,4,0.00
2014-12-15,46.3,44.3,41.3,44.0,40.9,37.7,97,88,79,30.08,29.71,3,1,9,0.00
2014-12-16,48.1,42.1,33.4,47.8,40.5,31.1,99,94,89,30.15,29.66,3,1,8,0.11
2014-12-17,33.4,29.6,26.3,31.3,26.3,21.9,93,87,83,30.30,30.15,3,1,7,0.00
2014-12-18,30.5,27.9,26.2,25.1,23.4,21.5,90,83,79,30.31,30.22,1,0,4,0.00
2014-12-19,31.7,27.9,22.4,26.6,24.3,20.4,93,86,80,30.32,30.25,1,0,3,0.00
2014-12-20,33.4,31.4,28.8,29.3,27.9,25.3,94,87,81,30.31,30.24,1,0,3,0.02
2014-12-21,38.2,31.2,23.2,32.4,27.7,21.7,95,87,78,30.31,30.07,2,0,6,0.00
2014-12-22,50.3,40.2,26.9,46.8,36.9,25.0,95,88,82,30.07,29.64,2,0,5,0.00
2014-12-23,56.2,51.8,49.0,53.6,50.8,46.8,100,97,86,29.77,29.60,1,0,5,0.14
2014-12-24,50.4,42.9,37.8,50.4,42.1,36.4,100,97,91,29.72,29.40,4,1,9,0.38
2014-12-25,43.0,38.2,35.5,37.1,35.1,33.1,95,89,78,30.14,29.72,2,0,7,0.09
2014-12-26,53.7,42.1,31.9,45.2,38.2,30.6,97,86,73,30.20,30.10,3,0,9,0.01
2014-12-27,47.2,44.0,39.8,46.9,42.6,36.6,100,95,84,30.15,30.02,3,0,6,0.43
2014-12-28,39.7,34.0,30.2,38.8,31.5,27.3,97,91,85,30.22,30.04,2,0,5,0.13
2014-12-29,36.8,30.2,25.2,30.7,26.3,23.6,94,86,74,30.39,30.20,2,0,5,0.00
2014-12-30,33.4,28.2,20.2,26.8,22.3,13.2,92,79,65,30.61,30.37,3,0,8,0.00
2014-12-31,27.2,20.7,14.0,13.6,10.6,8.7,80,65,48,30.62,30.35,2,0,7,0.00
2015-1-1,37.8,28.4,20.1,25.3,19.4,12.1,80,69,58,30.35,30.10,3,0,6,0.00
2015-1-2,39.5,34.8,29.7,33.9,30.5,24.9,92,84,72,30.34,30.19,0,0,0,0.00